Voltar ao catálogo

FENGYUN 1C DEB

AtivoPO
NORAD 33698·DEBRIS·🇨🇳 China

Lançado May 10, 1999 de Taiyuan Satellite Launch Center

Loading…

Próximas Passagens (próximas 24 horas)

TLE

AtualizadoSource: Space-Track

Época: Sep 12, 2026, 18:10 UTC

1 33698U 99025DGK 26255.75746679  .00000631  00000-0  13831-3 0  9994
2 33698  99.6459 263.1236 0137222 124.3602 237.0661 14.56470895996245

Acompanhe FENGYUN 1C DEB em tempo real com AllMySat

Download on the App Store